This demonstration page uses our WeatherBlox Daily Observations layout. Learn more.

Left ArrowRight Arrow

39.95238, -75.16362

Hourly Observations for February 6, 2017

Temp ( °F °C ) Dew Point ( °F °C ) Humidity (%) Winds ( mph kmh ) Pressure ( in mb ) Visibility ( mi km ) Precip ( " mm )
12:54 am 00:54 Cloudy 37 2.8 27 -2.8 67 67 W 8 13 30.01 1016 10 16 0.00 0.00
1:54 am 01:54 Mostly Cloudy 38 3.3 29 -1.7 70 70 WSW 9 15 30.01 1016 10 16 0.00 0.00
2:54 am 02:54 Mostly Cloudy 42 5.6 26 -3.3 53 53 W 12 19 30.03 1017 10 16 0.00 0.00
3:54 am 03:54 Mostly Clear 41 5 25 -3.9 53 53 WNW 9 15 30.05 1018 10 16 0.00 0.00
4:54 am 04:54 Mostly Clear 41 5 24 -4.4 51 51 WNW 10 17 30.06 1018 10 16 0.00 0.00
5:54 am 05:54 Clear 40 4.4 23 -5 51 51 NW 10 17 30.09 1019 10 16 0.00 0.00
6:54 am 06:54 Mostly Clear 39 3.9 23 -5 53 53 NW 12 19 30.12 1020 10 16 0.00 0.00
7:54 am 07:54 Mostly Sunny 39 3.9 23 -5 53 53 NNW 12 19 30.14 1021 10 16 0.00 0.00
8:54 am 08:54 Mostly Sunny 42 5.6 23 -5 47 47 NW 9 15 30.14 1021 10 16 0.00 0.00
9:54 am 09:54 Mostly Sunny 44 6.7 23 -5 43 43 NW 12 19 30.17 1022 10 16 0.00 0.00
10:54 am 10:54 Mostly Sunny 47 8.3 24 -4.4 41 41 WNW 7 11 30.16 1021 10 16 0.00 0.00
11:54 am 11:54 Partly Cloudy 50 10 24 -4.4 36 36 WNW 13 20 30.14 1021 10 16 0.00 0.00
12:54 pm 12:54 Mostly Sunny 51 10.6 23 -5 33 33 WNW 10 17 30.11 1020 10 16 0.00 0.00
1:54 pm 13:54 Mostly Sunny 53 11.7 24 -4.4 32 32 WSW 13 20 30.10 1019 10 16 0.00 0.00
2:54 pm 14:54 Mostly Sunny 53 11.7 25 -3.9 34 34 SW 9 15 30.09 1019 10 16 0.00 0.00
3:54 pm 15:54 Mostly Sunny 54 12.2 27 -2.8 35 35 SSW 7 11 30.07 1018 10 16 0.00 0.00
4:54 pm 16:54 Partly Cloudy 52 11.1 29 -1.7 41 41 S 9 15 30.06 1018 10 16 0.00 0.00
5:54 pm 17:54 Partly Cloudy 49 9.4 30 -1.1 48 48 S 9 15 30.07 1018 10 16 0.00 0.00
6:54 pm 18:54 Partly Cloudy 46 7.8 30 -1.1 54 54 SSW 12 19 30.08 1019 10 16 0.00 0.00
7:54 pm 19:54 Mostly Clear 43 6.1 30 -1.1 60 60 SW 7 11 30.07 1018 10 16 0.00 0.00
8:54 pm 20:54 Mostly Clear 42 5.6 31 -0.6 65 65 SW 3 6 30.06 1018 10 16 0.00 0.00
9:54 pm 21:54 Mostly Cloudy 39 3.9 31 -0.6 73 73 Calm 30.04 1017 10 16 0.00 0.00
10:54 pm 22:54 Mostly Cloudy 39 3.9 32 0 76 76 Calm 30.02 1017 10 16 0.00 0.00
11:54 pm 23:54 Cloudy 42 5.6 33 0.6 71 71 S 6 9 30.01 1016 10 16 0.00 0.00

Powered by AerisWeather